Location: Newark
(3.0500°N, 36.0167°E)
Time: 21:42:22
(UTC+00:00)

A-11 Canister half - Pass Details

Date: 29 August 2019
Orbit: 1527 x 1682 km, 47.3° (Epoch: 17 September)

Event Time Altitude Azimuth Distance (km) Brightness Sun altitude
Rises 16:41:48 0° 312° (NW) 4,911 12.7 -15.5°
Reaches altitude 10° 16:45:01 10° 309° (NW) 3,913 12.1 -16.3°
Maximum altitude 16:54:51 62° 231° (SW) 1,809 9.5 -18.7°
Drops below altitude 10° 17:04:26 10° 152° (SSE) 3,808 10.7 -21.0°
Enters shadow 17:04:46 - 152° (SSE) 3,909 10.8 -21.1°
Sets 17:07:33 0° 149° (SSE) 4,773 - -21.8°
